Terug naar catalogus

COSMOS 2504

ActiefNavigatiePO
NORAD 40555·PAYLOAD·🇷🇺 Russia

Gelanceerd Mar 31, 2015 vanaf Plesetsk Cosmodrome

Loading…

Volgende Passages (komende 24 uur)

TLE

VersSource: Space-Track

Epoch: Sep 14, 2026, 22:12 UTC

1 40555U 15020D   26257.92560920  .00000389  00000-0  13637-3 0  9995
2 40555  82.5202 161.9575 0608850  30.4492 333.0573 13.61422377562400

Volg COSMOS 2504 in realtime met AllMySat

Download on the App Store